User: anonymous   Login
Location: Caltech
(34.1382°N, 118.1253°W)
Time: 00:46:34
(UTC-07:00)
Language:

Cosmos-2242 - Orbit

View from above orbital plane
View from above orbital plane
View from above satellite
View from above satellite

Ground track
Ground track

The orbit data is extracted from the following two-line orbital elements,

1 22626U 93024A   18147.89855089  .00000168  00000-0  15539-4 0  9991
2 22626  82.5232  76.8132 0020431  59.0141 301.3080 14.87803340357401
Epoch (UTC): 27 May 2018 21:33:54
Eccentricity: 0.0020431
inclination: 82.5232°
perigee height: 590 km
apogee height: 619 km
right ascension of ascending node: 76.8132°
argument of perigee: 59.0141°
revolutions per day: 14.87803340
mean anomaly at epoch: 301.3080°
orbit number at epoch: 35740

The dashed part of the orbit path shows where the satellite is in the earth's shadow,  

DLR